CAPE
0 0 0 0 0 0 0 0 0 0 0 0 0 0 0 0 0 0 0 0 0 0 0 0 0 0 0 0 0 0 0 0 0 0 0 0 0 0 0 1 3 2 24 16
0 0 0 0 0 0 0 0 0 0 0 0 0 0 0 0 0 0 0 0 0 0 0 0 0 0 0 0 0 0 0 0 0 0 0 0 0 0 0 0 0 0 5 5
0 0 0 0 0 0 0 0 0 0 0 0 0 0 0 0 0 0 0 0 0 0 0 0 0 0 0 0 0 0 0 0 0 0 0 0 0 0 0 0 0 0 0 3
0 0 0 0 0 0 0 0 0 0 0 0 0 0 0 0 0 0 0 0 0 0 0 0 0 0 0 0 0 0 0 0 0 0 0 0 0 0 0 0 0 0 0 0
0 0 0 0 0 0 0 0 0 0 0 0 0 0 0 0 0 0 0 0 0 0 0 0 0 0 0 0 0 0 0 0 0 0 0 0 0 0 0 0 0 0 0 0
0 0 0 0 0 0 0 0 0 0 0 0 0 0 0 0 0 0 0 0 0 0 0 0 0 0 0 0 0 0 0 0 0 0 0 0 0 0 0 0 0 0 0 0
0 0 0 0 0 0 0 0 0 0 0 0 0 0 0 0 0 0 0 0 0 0 0 0 0 0 0 0 0 0 0 0 0 0 0 0 0 0 0 0 0 0 0 0
0 0 0 0 0 0 0 0 0 0 0 0 0 0 0 0 0 0 0 0 0 0 0 0 0 0 0 0 0 0 0 0 0 0 0 0 0 0 0 0 0 0 0 0
0 0 0 0 0 0 0 0 0 0 0 0 0 0 0 0 0 0 0 0 0 0 0 0 0 0 0 0 0 0 0 0 0 0 0 0 0 0 0 0 0 0 0 0
0 0 0 0 0 0 0 0 0 0 0 0 0 0 0 0 0 0 0 0 0 0 0 0 0 0 0 0 0 0 0 0 0 0 0 0 0 0 0 0 0 0 0 0
0 0 0 0 0 0 0 0 0 0 0 0 0 0 0 0 0 0 0 0 0 0 0 0 0 0 0 0 0 0 0 0 0 0 0 0 0 0 0 0 0 0 0 0
0 0 0 0 0 0 0 0 0 0 0 0 0 0 0 0 0 0 0 0 0 0 0 0 0 0 0 0 0 0 0 0 0 0 0 0 0 0 0 0 0 0 0 0
0 0 0 0 0 0 0 0 0 0 0 0 0 0 0 0 0 0 0 0 0 0 0 0 0 0 0 0 0 0 0 0 0 0 0 0 0 0 0 0 0 0 0 0
0 0 0 0 0 0 0 0 0 0 0 0 0 0 0 0 0 0 0 0 0 0 0 0 0 0 0 0 0 0 0 0 0 0 0 0 0 0 0 0 0 0 0 0
0 0 0 0 0 0 1 0 0 0 0 0 0 0 0 0 0 0 0 0 0 0 0 0 0 0 0 0 0 0 0 0 0 0 0 0 0 0 0 0 0 0 0 0
0 0 0 0 0 0 0 0 0 0 0 0 0 0 0 0 0 0 0 0 0 0 0 0 0 0 0 0 0 0 0 0 0 0 0 0 0 0 0 0 0 0 0 0
0 1 2 0 0 2 0 0 0 0 0 0 0 0 0 0 0 0 0 0 0 0 0 0 0 0 0 0 0 0 0 0 0 0 0 0 0 0 0 0 0 0 0 0
0 0 2 0 0 0 0 0 0 0 0 0 1 0 0 0 0 0 0 0 0 0 0 0 0 0 0 0 0 0 0 0 0 0 0 0 0 0 0 0 0 0 0 0
0 6 11 2 0 0 0 0 0 0 0 0 0 0 0 0 0 0 0 0 0 0 0 0 0 0 0 0 0 0 0 0 0 0 0 0 0 0 0 0 0 0 0 0
0 0 0 0 0 0 0 0 0 0 0 0 0 0 0 0 0 0 0 0 0 0 0 0 0 0 0 0 0 0 0 0 0 0 0 0 0 0 0 0 0 0 0 0
0 1 1 2 5 2 0 0 0 0 0 0 0 0 0 0 0 0 0 0 0 0 0 0 0 0 0 0 0 0 0 0 0 0 0 0 0 0 0 0 0 0 0 0
0 0 0 0 1 1 0 0 1 0 0 0 0 0 0 0 0 0 0 0 0 0 0 0 0 0 0 0 0 0 0 0 0 0 0 0 0 0 0 0 0 0 0 0
0 0 0 2 2 17 0 0 0 0 2 0 0 0 0 0 0 0 0 0 0 0 0 0 0 0 0 0 0 0 0 0 0 0 0 0 0 0 0 0 0 0 0 0
0 0 0 0 0 0 0 0 0 0 0 0 0 0 0 0 0 0 0 0 0 0 0 0 0 0 0 0 0 0 0 0 0 0 0 0 0 0 0 0 0 0 0 0
0 0 0 0 0 0 0 0 0 0 0 0 0 0 0 0 0 0 0 0 0 0 0 0 0 0 0 0 0 0 0 0 0 0 0 1 1 1 1 0 0 0 0 0
0 0 0 0 0 0 0 0 0 0 0 0 0 0 0 0 0 0 0 0 0 0 0 0 0 0 0 0 0 0 0 0 0 0 0 0 0 1 1 0 2 2 1 3
CIN
-0 -0 -0 -0 -0 -0 -0 -0 -0 -0 -0 -0 -0 -0 -0 -0 -0 -0 -0 -0 -0 -0 -0 -0 -0 -0 -0 -0 -0 -0 -2 -0 -0 -0 -0 -0 -0 -0 -0 -0 -7 -5 -75 -13
-0 -0 -0 -0 -0 -0 -0 -0 -0 -0 -0 -0 -0 -0 -0 -0 -0 -0 -0 -0 -0 -0 -0 -0 -0 -0 -0 -0 -0 -0 -0 -0 -0 -0 -0 -0 -0 -0 -0 -0 -0 -2 -10 -16
-0 -0 -0 -0 -0 -0 -0 -0 -0 -0 -0 -0 -0 -0 -0 -0 -0 -0 -0 -0 -0 -0 -0 -0 -0 -0 -0 -0 -0 -0 -0 -0 -0 -0 -0 -0 -0 -0 -0 -0 -0 -0 -0 -12
-0 -0 -0 -0 -0 -0 -0 -0 -0 -0 -0 -0 -0 -0 -0 -0 -0 -0 -0 -0 -0 -0 -0 -0 -0 -0 -0 -0 -0 -0 -0 -0 -0 -0 -0 -0 -0 -0 -0 -0 -0 -0 -0 -0
-0 -0 -0 -0 -0 -0 -0 -0 -0 -0 -0 -0 -0 -0 -0 -0 -0 -0 -0 -0 -0 -0 -0 -0 -0 -0 -0 -0 -0 -0 -0 -0 -0 -0 -0 -0 -0 -0 -0 -0 -0 -0 -0 -0
-0 -0 -0 -0 -0 -0 -0 -0 -0 -0 -0 -0 -0 -0 -0 -0 -0 -0 -0 -0 -0 -0 -0 -0 -0 -0 -0 -0 -0 -0 -0 -0 -0 -0 -0 -0 -0 -0 -0 -0 -0 -0 -0 -0
-0 -0 -0 -0 -0 -0 -0 -0 -0 -0 -0 -0 -0 -0 -0 -0 -0 -0 -0 -0 -0 -0 -0 -0 -0 -0 -0 -0 -0 -0 -0 -0 -0 -0 -0 -0 -0 -0 -0 -0 -0 -0 -0 -0
-0 -0 -0 -0 -0 -0 -0 -0 -0 -0 -0 -0 -0 -0 -0 -0 -0 -0 -0 -0 -0 -0 -0 -0 -0 -0 -0 -0 -0 -0 -0 -0 -0 -0 -0 -0 -0 -0 -0 -0 -0 -0 -0 -0
-0 -0 -0 -0 -0 -0 -0 -0 -0 -0 -0 -0 -0 -0 -0 -0 -0 -0 -0 -0 -0 -0 -0 -0 -0 -0 -0 -0 -0 -0 -0 -0 -0 -0 -0 -0 -0 -0 -0 -0 -0 -0 -0 -0
-0 -0 -0 -0 -0 -0 -0 -0 -0 -0 -0 -0 -0 -0 -0 -0 -0 -0 -0 -0 -0 -0 -0 -0 -0 -0 -0 -0 -0 -0 -0 -0 -0 -0 -0 -0 -0 -0 -0 -0 -0 -0 -0 -0
-0 -0 -0 -0 -0 -0 -0 -0 -0 -0 -0 -0 -0 -0 -0 -0 -0 -0 -0 -0 -0 -0 -0 -0 -0 -0 -0 -0 -0 -0 -0 -0 -0 -0 -0 -0 -0 -0 -0 -0 -0 -0 -0 -0
-0 -0 -0 -0 -0 -0 -0 -0 -0 -0 -0 -0 -0 -0 -0 -0 -0 -0 -0 -0 -0 -0 -0 -0 -0 -0 -0 -0 -0 -0 -0 -0 -0 -0 -0 -0 -0 -0 -0 -0 -0 -0 -0 -0
-0 -0 -0 -0 -0 -0 -0 -0 -0 -0 -0 -0 -0 -0 -0 -0 -0 -0 -0 -0 -0 -0 -0 -0 -0 -0 -0 -0 -0 -0 -0 -0 -0 -0 -0 -0 -0 -0 -0 -0 -0 -0 -0 -0
-0 -0 -0 -0 -0 -0 -0 -0 -0 -0 -0 -0 -0 -0 -0 -0 -0 -0 -0 -0 -0 -0 -0 -0 -0 -0 -0 -0 -0 -0 -0 -0 -0 -0 -0 -0 -0 -0 -0 -0 -0 -0 -0 -0
-3 -0 -0 -0 -0 -0 -0 -0 -0 -0 -0 -0 -0 -0 -0 -0 -0 -0 -0 -0 -0 -0 -0 -0 -0 -0 -0 -0 -0 -0 -0 -0 -0 -0 -0 -0 -0 -0 -0 -0 -0 -0 -0 -0
-0 -0 -0 -0 -0 -0 -0 -0 -0 -0 -0 -0 -0 -0 -0 -0 -0 -0 -0 -0 -0 -0 -0 -0 -0 -0 -0 -0 -0 -0 -0 -0 -0 -0 -0 -0 -0 -0 -0 -0 -0 -0 -0 -0
-0 -0 -3 -0 -1 -2 -2 -0 -0 -0 -0 -0 -0 -0 -0 -0 -0 -0 -0 -0 -0 -0 -0 -0 -0 -0 -0 -0 -0 -0 -0 -0 -0 -0 -0 -0 -0 -0 -0 -0 -0 -0 -0 -0
-0 -2 -8 -0 -3 -1 -0 -0 -0 -0 -0 -0 -3 -0 -0 -0 -0 -0 -0 -0 -0 -0 -0 -0 -0 -0 -0 -0 -0 -0 -0 -0 -0 -0 -0 -0 -0 -0 -0 -0 -0 -0 -0 -0
-0 -13 -5 -6 -0 -0 -0 -0 -0 -0 -0 -0 -0 -0 -0 -0 -0 -0 -0 -0 -0 -0 -0 -0 -0 -0 -0 -0 -0 -0 -0 -0 -0 -0 -0 -0 -0 -0 -0 -0 -0 -0 -0 -0
-0 -0 -0 -0 -0 -0 -0 -0 -0 -0 -0 -0 -0 -0 -0 -0 -0 -0 -0 -0 -0 -0 -0 -0 -0 -0 -0 -0 -0 -0 -0 -0 -0 -0 -0 -0 -0 -0 -0 -0 -0 -0 -0 -0
-0 -0 -0 -1 -0 -8 -0 -0 -0 -0 -0 -0 -0 -0 -0 -0 -0 -0 -0 -0 -0 -0 -0 -0 -0 -0 -0 -0 -0 -0 -0 -0 -0 -0 -0 -0 -0 -0 -0 -0 -0 -0 -0 -0
-0 -0 -0 -0 -0 -1 -0 -0 -0 -0 -0 -0 -0 -0 -0 -0 -0 -0 -0 -0 -0 -0 -0 -0 -0 -0 -0 -0 -0 -0 -0 -0 -0 -0 -0 -0 -0 -0 -0 -0 -0 -0 -0 -0
-0 -0 -0 -3 -2 -42 -0 -0 -0 -0 -2 -0 -0 -0 -0 -0 -0 -0 -0 -0 -0 -0 -0 -0 -0 -0 -0 -0 -0 -0 -0 -0 -0 -0 -0 -0 -0 -0 -0 -0 -0 -0 -0 -0
-0 -0 -0 -0 -0 -0 -0 -0 -0 -0 -0 -0 -0 -0 -0 -0 -0 -0 -0 -0 -0 -0 -0 -0 -0 -0 -0 -0 -0 -0 -0 -0 -0 -0 -0 -0 -0 -0 -0 -0 -0 -0 -0 -0
-0 -0 -0 -0 -0 -0 -0 -0 -0 -0 -0 -0 -0 -0 -0 -0 -0 -0 -0 -0 -0 -0 -0 -0 -0 -0 -0 -0 -0 -0 -0 -0 -0 -0 -0 -0 -0 -0 -0 -0 -0 -0 -0 -0
-0 -0 -0 -0 -0 -0 -0 -0 -0 -0 -0 -0 -0 -0 -0 -0 -0 -0 -0 -0 -0 -0 -0 -0 -0 -0 -0 -0 -0 -0 -0 -0 -0 -0 -0 -0 -0 -0 -0 -0 -0 -0 -0 -0
Wind_Speed
18 22 23 21 24 26 25 27 25 20 20 25 30 38 36 33 32 33 25 6 15 16 8 5 6 9 9 9 10 10 9 8 8 9 11 11 11 10 10 11 12 12 12 11
21 28 23 22 23 24 25 31 31 30 23 28 34 42 39 36 40 33 31 28 19 8 9 8 7 7 9 10 10 9 10 10 10 10 11 10 11 12 13 13 15 17 14 14
25 24 22 22 24 25 26 29 30 31 29 30 37 41 34 30 25 31 31 25 11 14 15 11 7 8 8 9 10 11 11 10 10 10 10 10 10 14 15 16 17 18 19 16
27 25 23 22 27 24 32 26 26 31 32 35 26 42 38 37 36 27 33 28 26 22 16 11 12 8 8 9 8 10 11 11 11 11 11 13 14 14 16 18 17 18 19 19
26 24 25 28 26 23 27 24 23 24 30 36 33 37 40 30 32 29 31 32 26 23 18 16 12 13 9 8 9 9 10 11 12 12 13 14 16 16 19 18 18 19 20 21
27 22 23 25 23 25 19 23 23 25 28 43 33 34 42 36 31 28 21 21 20 20 19 19 19 18 15 10 10 9 9 10 10 11 13 15 16 16 18 19 19 20 20 20
30 31 25 21 23 21 22 24 32 35 35 45 29 34 40 28 31 31 29 29 26 22 20 24 23 21 19 16 13 12 11 11 9 9 11 13 15 16 17 17 18 22 22 21
36 38 28 26 29 28 25 25 31 39 39 39 31 41 39 23 25 28 29 30 27 29 27 29 25 21 17 16 15 15 14 13 11 10 9 10 12 15 16 17 18 21 22 22
35 37 24 23 25 24 28 33 30 37 38 43 39 41 41 33 32 32 34 34 33 28 27 26 23 21 18 19 18 17 16 15 13 10 8 8 10 12 15 17 18 19 20 21
33 42 29 29 26 29 29 25 32 31 42 47 47 48 44 35 35 32 28 28 29 28 28 27 23 22 21 19 18 16 14 15 13 12 12 10 11 14 15 17 18 20 21 20
29 34 33 30 34 33 31 35 31 30 34 42 52 46 33 29 25 23 23 22 22 23 26 25 23 20 19 19 17 16 16 17 17 16 14 13 14 16 18 19 21 21 22 21
29 31 40 37 29 28 32 36 33 39 40 38 43 58 27 25 23 24 25 28 31 30 25 23 22 21 22 21 21 22 24 24 23 20 19 18 19 22 24 25 25 25 23 22
24 29 37 37 34 31 35 36 35 38 37 42 42 49 22 23 24 25 28 30 29 28 26 28 27 27 28 30 29 29 28 29 29 27 25 24 24 25 26 26 25 25 24 22
20 27 31 38 30 29 34 35 34 35 42 46 46 51 55 45 43 40 42 37 34 34 35 36 37 37 38 36 35 33 33 31 32 29 28 29 29 28 27 27 27 25 23 22
26 35 33 37 39 38 36 35 37 41 43 45 51 49 68 52 50 48 45 45 45 46 45 44 44 45 45 42 40 38 37 36 34 32 30 30 31 28 26 26 26 25 23 22
30 40 35 45 42 42 48 45 42 41 44 44 48 52 42 56 51 51 51 46 49 48 49 47 45 44 46 44 43 41 40 38 34 32 33 33 30 27 27 27 27 25 24 23
31 33 38 53 41 42 48 48 44 47 45 43 50 51 48 52 51 53 50 51 56 55 55 52 48 45 45 43 41 41 41 38 35 34 34 32 31 29 27 27 26 26 25 25
36 37 38 47 39 54 46 38 40 44 46 44 46 49 55 54 57 56 45 48 52 51 51 48 46 44 41 41 42 42 42 41 39 36 34 33 31 30 28 26 25 25 24 24
38 39 45 50 52 50 52 48 42 46 53 43 45 46 48 48 47 52 39 40 42 43 45 44 44 45 45 43 41 40 39 37 36 34 33 31 29 28 26 25 24 25 25 25
37 40 46 52 58 65 62 54 44 43 60 47 43 44 46 48 54 52 45 46 47 46 45 48 49 49 48 46 44 42 39 36 36 34 31 29 27 26 26 26 25 26 25 25
36 39 46 51 55 52 51 52 44 56 54 36 36 38 41 45 44 48 49 50 47 48 49 47 47 50 48 45 44 43 39 37 34 31 28 27 26 26 26 25 26 25 25 25
44 44 45 45 52 61 41 44 47 40 35 39 42 43 46 47 49 46 47 48 51 53 52 48 50 48 44 42 41 39 39 34 30 27 27 27 26 26 25 26 25 25 24 25
52 45 45 42 43 30 31 37 35 34 35 38 41 43 43 46 46 49 50 52 52 51 50 46 47 47 42 39 38 37 33 29 27 26 26 25 26 26 25 24 24 23 21 22
40 37 45 49 50 51 46 41 39 40 44 41 42 45 46 47 48 50 50 52 50 49 50 46 45 44 41 36 33 32 28 23 22 21 22 22 21 21 20 17 15 14 15 15
41 38 43 47 51 46 47 45 45 47 46 48 50 49 49 46 52 52 54 53 54 54 49 45 44 41 38 34 29 24 23 19 18 19 18 17 16 14 13 13 13 14 13 13
43 48 50 56 47 46 49 45 46 51 48 47 49 51 49 46 49 53 52 50 50 51 46 44 41 37 33 30 26 25 19 15 12 13 13 11 10 9 10 10 13 15 15 15
Wind_Direction
275 269 267 272 271 271 283 281 284 295 294 293 287 275 279 286 282 278 295 253 215 218 302 240 224 210 207 210 208 209 213 218 220 222 222 231 236 251 256 258 274 265 268 262
273 266 272 277 278 275 278 275 276 284 297 292 286 270 275 285 260 235 233 231 224 261 292 284 243 231 220 219 221 225 224 228 228 233 238 246 255 264 270 268 268 281 267 264
268 278 272 275 277 276 277 277 279 283 292 292 287 277 285 289 295 276 234 228 282 298 305 302 275 235 229 227 230 230 234 236 238 244 253 267 277 282 278 275 269 268 279 268
272 272 275 275 275 277 275 284 283 284 287 283 297 278 280 278 278 294 289 300 303 307 307 299 300 283 248 245 251 252 254 252 249 248 255 252 255 265 273 280 283 277 273 272
272 273 270 270 274 277 279 288 285 288 287 284 284 285 275 291 289 293 294 298 305 309 314 313 308 310 285 277 273 279 270 259 257 250 257 259 264 268 290 284 282 281 279 273
272 281 277 276 279 278 283 285 288 289 288 276 282 283 281 282 291 297 301 312 318 323 323 321 323 322 321 311 301 294 284 277 267 263 256 260 266 273 279 284 283 285 283 276
269 269 276 278 275 280 276 279 278 278 276 274 288 281 277 288 287 292 294 301 305 314 317 316 315 315 315 313 314 313 306 299 289 277 271 265 273 275 276 280 282 286 286 281
263 265 264 267 268 272 268 270 271 274 274 278 286 276 284 297 301 301 300 299 303 306 307 310 312 313 315 317 319 318 315 312 308 297 283 276 273 284 288 288 289 291 289 286
265 268 270 273 273 267 270 266 275 278 280 279 279 280 286 293 297 300 299 300 300 307 313 314 314 315 317 317 317 317 318 320 317 314 306 296 292 290 295 298 297 298 296 294
267 267 274 271 273 270 267 279 271 270 273 273 276 279 280 294 298 300 304 307 308 312 316 316 317 316 316 319 321 324 325 326 327 324 318 309 301 298 298 300 300 299 299 295
266 266 270 271 265 264 266 265 272 275 271 275 276 278 294 297 306 309 313 320 324 325 324 324 324 323 322 320 321 325 327 326 324 319 314 308 304 303 303 300 302 303 301 298
264 271 265 268 276 275 268 268 262 267 273 273 276 274 283 301 305 311 312 310 312 318 322 328 327 325 323 321 317 316 316 315 315 314 306 300 302 302 302 302 303 303 301 299
276 270 267 270 273 275 271 268 269 271 275 271 271 275 294 305 302 308 309 310 312 316 314 316 318 317 317 314 309 307 308 309 311 310 304 301 300 300 298 300 302 302 302 299
272 270 266 265 278 282 273 272 270 269 270 269 270 276 274 282 290 296 299 303 305 306 306 307 307 308 310 311 308 304 304 305 308 305 301 299 299 298 296 298 299 300 300 297
272 270 269 270 274 278 280 279 277 274 274 274 275 277 269 282 287 291 294 296 298 298 300 301 302 304 305 307 307 305 303 304 304 301 298 296 297 295 293 295 297 298 297 296
268 272 272 272 274 274 274 277 277 276 276 278 277 278 280 283 288 288 289 296 295 297 299 301 303 304 304 305 305 305 305 305 303 301 300 300 298 296 294 296 296 296 296 295
271 272 273 272 277 276 272 270 275 278 277 277 276 281 287 287 288 288 294 296 294 296 296 299 302 306 306 306 307 306 307 308 305 302 303 302 300 298 297 298 297 296 295 296
270 273 274 274 277 269 275 280 280 279 281 283 282 284 285 288 288 289 298 296 296 296 297 300 303 306 310 310 308 307 306 304 303 302 303 303 301 299 299 299 298 299 298 296
267 270 272 271 271 276 277 276 284 286 282 287 288 287 287 291 294 290 301 302 303 303 303 305 308 308 309 310 311 310 309 307 306 304 303 303 303 302 302 302 302 302 300 299
266 266 267 270 271 272 275 282 289 291 281 290 287 287 289 291 287 290 297 299 299 301 305 305 306 305 306 307 308 307 307 306 305 305 306 306 304 302 302 303 303 304 302 302
271 270 266 270 272 277 280 283 288 279 282 294 298 297 295 290 292 295 298 298 298 300 302 306 307 306 306 307 306 304 304 303 305 306 306 307 307 306 305 305 305 304 304 304
269 272 271 274 275 275 287 288 281 290 294 296 295 294 294 294 295 298 299 299 299 300 303 305 304 304 306 307 306 304 302 306 306 306 306 307 308 308 308 307 307 307 307 306
269 269 275 274 278 289 293 292 297 300 299 300 299 298 300 297 298 298 300 300 301 302 304 307 306 305 306 306 304 301 302 304 304 304 305 308 311 311 311 309 309 310 312 310
277 281 277 279 278 282 287 290 294 297 296 297 299 299 300 297 299 300 301 300 301 303 304 305 305 306 306 308 305 303 303 303 303 304 309 312 314 319 321 325 329 332 331 330
277 285 282 282 282 288 288 289 291 295 298 296 295 296 297 295 295 298 299 298 298 300 302 304 303 303 303 305 308 308 304 301 300 308 313 316 322 331 335 343 347 348 357 2
278 279 279 280 287 290 290 292 294 294 295 298 298 296 296 297 295 296 297 300 300 300 300 300 301 302 301 300 303 303 304 296 311 319 319 327 336 345 352 351 353 6 3 7